When you browse on this site, cookies collect data to enhance your experience and personalize the content and advertising you see.
Visit our Privacy Policy to learn more. By continuing to use the site, you agree to this use of cookies and data.
  • în România
  • Lista ţărilor
  • Pe 7 zile
  • Temperatura apei
  • Hartă satelitară
  • Meteo pe hartă
  • Widget-uri
  • user-avatar
    Intrare

    Meteo pe oră la Arradon

    Astăzi, 19 Iulie, Vineri

    Timp Temperatura Precipitaţii Vânt Presiune Umiditate
    00:00 +13°C° 0 mm 3 m/s 759 mmHg 93%
    01:00 +13°C° 0 mm 3 m/s 759 mmHg 93%
    02:00 +14°C° 0 mm 2 m/s 758 mmHg 94%
    03:00 +14°C° 0 mm 2 m/s 758 mmHg 94%
    04:00 +14°C° 0 mm 3 m/s 758 mmHg 91%
    05:00 +17°C° 0 mm 3 m/s 758 mmHg 89%
    06:00 +18°C° 0 mm 4 m/s 758 mmHg 88%
    07:00 +19°C° 0 mm 4 m/s 758 mmHg 84%
    08:00 +20°C° 0 mm 5 m/s 758 mmHg 80%
    09:00 +21°C° 0 mm 5 m/s 758 mmHg 76%
    10:00 +22°C° 0 mm 5 m/s 758 mmHg 75%
    11:00 +22°C° 0 mm 6 m/s 757 mmHg 74%
    12:00 +22°C° 0 mm 5 m/s 758 mmHg 74%
    13:00 +23°C° 0 mm 5 m/s 757 mmHg 72%
    14:00 +23°C° 0 mm 6 m/s 757 mmHg 71%
    15:00 +23°C° 0 mm 6 m/s 757 mmHg 70%
    16:00 +23°C° 0 mm 5 m/s 756 mmHg 72%
    17:00 +22°C° 0 mm 5 m/s 756 mmHg 75%
    18:00 +21°C° 0 mm 5 m/s 756 mmHg 77%
    19:00 +20°C° 0 mm 4 m/s 755 mmHg 83%
    20:00 +19°C° 0 mm 4 m/s 755 mmHg 90%
    21:00 +18°C° 0 mm 4 m/s 755 mmHg 96%
    22:00 +18°C° 0.2 mm 4 m/s 755 mmHg 95%
    23:00 +17°C° 0.2 mm 5 m/s 755 mmHg 95%

    Mâine, 20 Iulie, Sâmbătă

    Timp Temperatura Precipitaţii Vânt Presiune Umiditate
    00:00 +19°C° 0.2 mm 6 m/s 755 mmHg 94%
    01:00 +19°C° 0.1 mm 6 m/s 755 mmHg 94%
    02:00 +19°C° 0.1 mm 6 m/s 754 mmHg 94%
    03:00 +19°C° 0.1 mm 6 m/s 754 mmHg 94%
    04:00 +19°C° 0.2 mm 6 m/s 754 mmHg 93%
    05:00 +19°C° 0.2 mm 6 m/s 754 mmHg 93%
    06:00 +19°C° 0.2 mm 6 m/s 754 mmHg 92%
    07:00 +20°C° 0.1 mm 6 m/s 755 mmHg 87%
    08:00 +21°C° 0.1 mm 6 m/s 755 mmHg 82%
    09:00 +22°C° 0.1 mm 6 m/s 756 mmHg 77%
    10:00 +22°C° 0 mm 7 m/s 756 mmHg 72%
    11:00 +23°C° 0 mm 7 m/s 756 mmHg 66%
    12:00 +23°C° 0 mm 7 m/s 757 mmHg 61%
    13:00 +23°C° 0 mm 7 m/s 757 mmHg 61%
    14:00 +23°C° 0 mm 7 m/s 757 mmHg 62%
    15:00 +23°C° 0 mm 7 m/s 757 mmHg 62%
    16:00 +23°C° 0 mm 6 m/s 758 mmHg 65%
    17:00 +22°C° 0 mm 6 m/s 758 mmHg 68%
    18:00 +22°C° 0 mm 6 m/s 758 mmHg 72%
    19:00 +20°C° 0 mm 5 m/s 759 mmHg 79%
    20:00 +19°C° 0 mm 4 m/s 760 mmHg 87%
    21:00 +17°C° 0 mm 4 m/s 760 mmHg 94%
    22:00 +17°C° 0 mm 3 m/s 760 mmHg 95%
    23:00 +16°C° 0 mm 3 m/s 761 mmHg 95%

    Poimâine, 21 Iulie, Duminică

    Timp Temperatura Precipitaţii Vânt Presiune Umiditate
    00:00 +16°C° 0 mm 2 m/s 761 mmHg 95%
    01:00 +15°C° 0 mm 2 m/s 761 mmHg 95%
    02:00 +15°C° 0 mm 1 m/s 761 mmHg 95%
    03:00 +15°C° 0 mm 1 m/s 762 mmHg 95%
    04:00 +15°C° 0 mm 1 m/s 762 mmHg 94%
    05:00 +15°C° 0 mm 0 m/s 762 mmHg 92%
    06:00 +16°C° 0 mm 0 m/s 762 mmHg 91%
    07:00 +20°C° 0 mm 1 m/s 762 mmHg 84%
    08:00 +21°C° 0 mm 1 m/s 763 mmHg 77%
    09:00 +23°C° 0 mm 1 m/s 763 mmHg 70%
    10:00 +24°C° 0 mm 2 m/s 763 mmHg 67%
    11:00 +25°C° 0 mm 2 m/s 763 mmHg 64%
    12:00 +25°C° 0 mm 3 m/s 763 mmHg 60%
    13:00 +25°C° 0 mm 3 m/s 763 mmHg 61%
    14:00 +25°C° 0 mm 3 m/s 763 mmHg 61%
    15:00 +25°C° 0 mm 3 m/s 763 mmHg 61%
    16:00 +25°C° 0 mm 3 m/s 763 mmHg 64%
    17:00 +24°C° 0 mm 3 m/s 763 mmHg 66%
    18:00 +24°C° 0 mm 3 m/s 763 mmHg 69%
    19:00 +21°C° 0 mm 3 m/s 764 mmHg 76%
    20:00 +19°C° 0 mm 3 m/s 764 mmHg 84%
    21:00 +17°C° 0 mm 3 m/s 764 mmHg 92%
    22:00 +17°C° 0 mm 3 m/s 764 mmHg 92%
    23:00 +17°C° 0 mm 3 m/s 764 mmHg 93%

    22 Iulie, Luni

    Timp Temperatura Precipitaţii Vânt Presiune Umiditate
    00:00 +17°C° 0 mm 3 m/s 764 mmHg 94%
    01:00 +16°C° 0 mm 3 m/s 764 mmHg 93%
    02:00 +16°C° 0 mm 3 m/s 764 mmHg 93%
    03:00 +16°C° 0 mm 3 m/s 763 mmHg 93%
    04:00 +16°C° 0 mm 3 m/s 763 mmHg 91%
    05:00 +17°C° 0 mm 3 m/s 763 mmHg 89%
    06:00 +17°C° 0 mm 3 m/s 763 mmHg 88%
    07:00 +20°C° 0 mm 3 m/s 763 mmHg 79%
    08:00 +22°C° 0 mm 3 m/s 763 mmHg 70%
    09:00 +26°C° 0 mm 3 m/s 763 mmHg 61%
    10:00 +27°C° 0 mm 3 m/s 763 mmHg 54%
    11:00 +29°C° 0 mm 2 m/s 763 mmHg 48%
    12:00 +31°C° 0 mm 2 m/s 763 mmHg 41%
    13:00 +31°C° 0 mm 2 m/s 762 mmHg 40%
    14:00 +32°C° 0 mm 2 m/s 762 mmHg 38%
    15:00 +33°C° 0 mm 1 m/s 762 mmHg 37%
    16:00 +32°C° 0 mm 2 m/s 761 mmHg 41%
    17:00 +32°C° 0 mm 2 m/s 761 mmHg 46%
    18:00 +31°C° 0 mm 2 m/s 760 mmHg 50%
    19:00 +29°C° 0 mm 4 m/s 760 mmHg 57%
    20:00 +26°C° 0 mm 5 m/s 760 mmHg 64%
    21:00 +22°C° 0 mm 6 m/s 760 mmHg 71%
    22:00 +22°C° 0 mm 5 m/s 760 mmHg 71%
    23:00 +22°C° 0 mm 4 m/s 760 mmHg 71%

    23 Iulie, Marţi

    Timp Temperatura Precipitaţii Vânt Presiune Umiditate
    00:00 +21°C° 0 mm 3 m/s 760 mmHg 71%
    01:00 +21°C° 0 mm 4 m/s 759 mmHg 68%
    02:00 +21°C° 0 mm 4 m/s 759 mmHg 66%
    03:00 +21°C° 0 mm 4 m/s 758 mmHg 64%
    04:00 +21°C° 0 mm 4 m/s 758 mmHg 65%
    05:00 +21°C° 0 mm 4 m/s 758 mmHg 67%
    06:00 +21°C° 0 mm 4 m/s 758 mmHg 68%
    07:00 +25°C° 0.2 mm 4 m/s 758 mmHg 62%
    08:00 +28°C° 0.2 mm 4 m/s 758 mmHg 56%
    09:00 +30°C° 0.2 mm 3 m/s 758 mmHg 50%
    10:00 +30°C° 0.3 mm 3 m/s 758 mmHg 53%
    11:00 +30°C° 0.3 mm 2 m/s 757 mmHg 55%
    12:00 +29°C° 0.3 mm 2 m/s 757 mmHg 58%
    13:00 +31°C° 0 mm 2 m/s 757 mmHg 54%
    14:00 +32°C° 0 mm 1 m/s 757 mmHg 50%
    15:00 +34°C° 0 mm 1 m/s 756 mmHg 46%
    16:00 +32°C° 0 mm 2 m/s 756 mmHg 51%
    17:00 +30°C° 0 mm 3 m/s 756 mmHg 56%
    18:00 +29°C° 0 mm 4 m/s 756 mmHg 61%
    19:00 +27°C° 0 mm 4 m/s 757 mmHg 68%
    20:00 +25°C° 0 mm 3 m/s 757 mmHg 75%
    21:00 +24°C° 0 mm 3 m/s 758 mmHg 82%
    22:00 +22°C° 0 mm 3 m/s 758 mmHg 84%
    23:00 +21°C° 0 mm 2 m/s 758 mmHg 86%

    24 Iulie, Miercuri

    Timp Temperatura Precipitaţii Vânt Presiune Umiditate
    00:00 +20°C° 0 mm 2 m/s 758 mmHg 88%
    01:00 +20°C° 0 mm 2 m/s 758 mmHg 89%
    02:00 +19°C° 0 mm 2 m/s 757 mmHg 90%
    03:00 +19°C° 0 mm 2 m/s 757 mmHg 90%
    04:00 +19°C° 0 mm 2 m/s 757 mmHg 89%
    05:00 +20°C° 0 mm 2 m/s 757 mmHg 87%
    06:00 +20°C° 0 mm 2 m/s 757 mmHg 86%
    07:00 +23°C° 0 mm 2 m/s 757 mmHg 79%
    08:00 +25°C° 0 mm 1 m/s 757 mmHg 73%
    09:00 +27°C° 0 mm 1 m/s 757 mmHg 66%
    10:00 +29°C° 0 mm 2 m/s 757 mmHg 60%
    11:00 +30°C° 0 mm 2 m/s 757 mmHg 54%
    12:00 +33°C° 0 mm 3 m/s 757 mmHg 47%
    13:00 +33°C° 0 mm 3 m/s 756 mmHg 48%
    14:00 +31°C° 0 mm 3 m/s 756 mmHg 49%
    15:00 +32°C° 0 mm 4 m/s 756 mmHg 50%
    16:00 +29°C° 0 mm 3 m/s 755 mmHg 54%
    17:00 +28°C° 0 mm 3 m/s 755 mmHg 57%
    18:00 +27°C° 0 mm 3 m/s 755 mmHg 60%
    19:00 +25°C° 0 mm 3 m/s 755 mmHg 66%
    20:00 +22°C° 0 mm 3 m/s 755 mmHg 72%
    21:00 +20°C° 0 mm 3 m/s 756 mmHg 78%
    22:00 +20°C° 0 mm 3 m/s 756 mmHg 78%
    23:00 +19°C° 0 mm 2 m/s 756 mmHg 78%
    Arată mai mult